Location: Nelson
(47.1935°N, 121.0537°W)
Time: 12:33:47
(UTC+00:00)

BlueWalker 3 - Pass Details

Date: 01 December 2022
Orbit: 499 x 517 km, 53.2° (Epoch: 01 February)

Event Time Altitude Azimuth Distance (km) Brightness Sun altitude
Rises 02:08:25 0° 279° (W) 2,627 6.9 -18.3°
Maximum altitude 02:14:22 34° 355° (N) 866 3.0 -19.3°
Enters shadow 02:14:57 32° 14° (NNE) 898 2.9 -19.4°
